Bar Harbor, ME

1:27 AM EDT on October 24, 2019 (GMT -0400)
Hancock County-Bar Harbor

Weather History for KBHB - June, 2019

Change the Weather History Date:

Tuesday, June 11, 2019

  Actual Average Record
Temperature  
Mean Temperature 56 °F -  
Max Temperature 62 °F 71 °F 86 °F (1976)
Min Temperature 50 °F 48 °F 37 °F (1968)
Degree Days  
Heating Degree Days 9    
Growing Degree Days 6 (Base 50)    
Moisture  
Dew Point 55 °F    
Average Humidity 92    
Maximum Humidity 100    
Minimum Humidity 72    
Precipitation  
Precipitation 2.04 in - - ()
Sea Level Pressure  
Sea Level Pressure 29.86 in    
Wind  
Wind Speed 4 mph (East)    
Max Wind Speed 14 mph    
Max Gust Speed 23 mph    
Visibility 7 miles    
Events Fog , Rain    
Averages and records for this station are not official NWS values.
T = Trace of Precipitation, MM = Missing Value Source: NWS Daily Summary

Daily Weather History Graph

Daily Weather History Graph

Search for Another Location

Airport or City:

Astronomy

Jun. 11, 2019 Rise Set
Actual Time 4:48 AM EDT 8:17 PM EDT
Civil Twilight 4:12 AM EDT 8:54 PM EDT
Nautical Twilight 3:24 AM EDT 9:42 PM EDT
Astronomical Twilight 2:22 AM EDT 10:44 PM EDT
Moon 1:57 PM EDT (6/11) 1:47 AM EDT (6/11)
Length of Visible Light 16h 42m
Length of Day
15h 29m
Waxing Gibbous, 66% of the Moon is Illuminated
Jun 11
Waxing Gibbous
Jun 17
Full
Jun 25
Last Quarter
Jul 2
New
Jul 9
First Quarter

Hourly Weather History & Observations

Time (EDT) Temp. Dew Point Humidity Pressure Visibility Wind Dir Wind Speed Gust Speed Precip Events Conditions
12:56 AM 50.0 °F 48.9 °F 96% 30.09 in 10.0 mi Calm Calm - N/A   Partly Cloudy
1:14 AM 50.0 °F 48.2 °F 94% 30.07 in 10.0 mi Calm Calm - N/A   Mostly Cloudy
1:56 AM 52.0 °F 51.1 °F 97% 30.06 in 10.0 mi Calm Calm - N/A   Overcast
2:39 AM 53.6 °F 51.8 °F 94% 30.03 in 10.0 mi East 3.5 mph - N/A   Partly Cloudy
2:56 AM 54.0 °F 52.0 °F 93% 30.04 in 10.0 mi East 4.6 mph - N/A   Mostly Cloudy
3:56 AM 55.0 °F 52.0 °F 89% 30.01 in 10.0 mi ESE 5.8 mph - N/A   Overcast
4:56 AM 54.0 °F 52.0 °F 93% 29.99 in 10.0 mi East 4.6 mph - N/A   Overcast
5:56 AM 55.0 °F 52.0 °F 89% 29.97 in 10.0 mi Calm Calm - N/A   Overcast
6:56 AM 57.0 °F 54.0 °F 89% 29.96 in 10.0 mi SE 5.8 mph - N/A   Overcast
7:56 AM 57.9 °F 54.0 °F 87% 29.94 in 10.0 mi Calm Calm - N/A   Overcast
8:56 AM 61.0 °F 55.9 °F 83% 29.92 in 10.0 mi SSE 11.5 mph 16.1 mph N/A   Overcast
9:56 AM 61.0 °F 55.9 °F 83% 29.90 in 10.0 mi SSE 13.8 mph 23.0 mph N/A   Overcast
10:56 AM 59.0 °F 54.0 °F 83% 29.87 in 10.0 mi SE 8.1 mph 17.3 mph 0.01 in Rain Light Rain
11:11 AM 59.0 °F 55.4 °F 88% 29.84 in 4.0 mi SE 5.8 mph - 0.01 in Rain Rain
11:53 AM 55.4 °F 53.6 °F 94% 29.82 in 2.5 mi East 8.1 mph - 0.22 in Rain Heavy Rain
11:56 AM 55.0 °F 54.0 °F 96% 29.83 in 2.5 mi East 8.1 mph - 0.25 in Rain Heavy Rain
12:04 PM 55.4 °F 55.4 °F 100% 29.82 in 3.0 mi Variable 5.8 mph - 0.02 in Rain Rain
12:22 PM 55.4 °F 55.4 °F 100% 29.81 in - ENE 5.8 mph - 0.15 in Rain Heavy Rain
12:35 PM 57.2 °F 55.4 °F 94% 29.81 in 1.0 mi ENE 4.6 mph - 0.40 in Rain Heavy Rain
12:45 PM 57.2 °F 55.4 °F 94% 29.80 in 0.5 mi East 5.8 mph - 0.70 in Fog , Rain Heavy Rain
12:56 PM 57.0 °F 55.9 °F 96% 29.81 in 0.8 mi East 6.9 mph - 1.01 in Rain Heavy Rain
1:11 PM 57.2 °F 57.2 °F 100% 29.79 in 1.2 mi East 5.8 mph - 0.19 in Rain Heavy Rain
1:19 PM 57.2 °F 55.4 °F 94% 29.79 in 3.0 mi Variable 4.6 mph - 0.23 in Rain Rain
1:32 PM 55.4 °F 55.4 °F 100% 29.78 in 1.8 mi East 6.9 mph - 0.34 in Rain Heavy Rain
1:46 PM 55.4 °F 55.4 °F 100% 29.78 in 2.0 mi ESE 6.9 mph - 0.46 in Rain Heavy Rain
1:47 PM 55.9 °F 55.0 °F 97% 29.80 in 2.0 mi SE 5.8 mph - 0.46 in Rain Rain
1:59 PM 57.2 °F 55.4 °F 94% 29.78 in 3.0 mi SSE 9.2 mph - 0.04 in Rain Rain
2:53 PM 57.2 °F 55.4 °F 94% 29.76 in 1.8 mi SE 4.6 mph - 0.21 in Rain Heavy Rain
2:56 PM 57.0 °F 55.9 °F 96% 29.77 in 1.8 mi SE 4.6 mph - 0.23 in Rain Heavy Rain
3:02 PM 57.2 °F 55.4 °F 94% 29.76 in 3.0 mi SE 3.5 mph - 0.01 in Rain Rain
3:56 PM 57.0 °F 55.9 °F 96% 29.77 in 6.0 mi Calm Calm - 0.05 in Rain Rain
4:54 PM 57.2 °F 57.2 °F 100% 29.76 in 10.0 mi Calm Calm - 0.03 in Rain Light Rain
4:56 PM 57.9 °F 57.0 °F 97% 29.78 in 10.0 mi Calm Calm - 0.03 in Rain Light Rain
5:22 PM 57.2 °F 57.2 °F 100% 29.77 in 10.0 mi WNW 3.5 mph - 0.00 in   Overcast
5:47 PM 57.2 °F 57.2 °F 100% 29.78 in 10.0 mi WNW 4.6 mph - 0.00 in   Overcast
5:56 PM 57.9 °F 57.0 °F 97% 29.79 in 7.0 mi NW 4.6 mph - 0.00 in   Overcast
6:23 PM 59.0 °F 57.2 °F 94% 29.79 in 10.0 mi NW 4.6 mph - N/A   Mostly Cloudy
6:36 PM 60.8 °F 60.8 °F 100% 29.79 in 10.0 mi Variable 4.6 mph - N/A   Scattered Clouds
6:48 PM 62.6 °F 60.8 °F 94% 29.80 in 10.0 mi Variable 4.6 mph - N/A   Mostly Cloudy
6:56 PM 62.1 °F 60.1 °F 93% 29.81 in 10.0 mi NW 8.1 mph - N/A   Mostly Cloudy
7:00 PM 62.6 °F 60.8 °F 94% 29.80 in 10.0 mi NNW 8.1 mph - N/A   Mostly Cloudy
7:29 PM 62.6 °F 59.0 °F 88% 29.82 in 10.0 mi NNW 8.1 mph 17.3 mph N/A   Overcast
7:50 PM 60.8 °F 55.4 °F 82% 29.82 in 10.0 mi NW 11.5 mph 17.3 mph N/A   Mostly Cloudy
7:56 PM 60.1 °F 55.9 °F 86% 29.84 in 10.0 mi NW 10.4 mph 20.7 mph N/A   Mostly Cloudy
8:56 PM 57.9 °F 51.1 °F 78% 29.87 in 10.0 mi NW 6.9 mph 17.3 mph N/A   Clear
9:56 PM 57.0 °F 50.0 °F 77% 29.89 in 10.0 mi NW 9.2 mph - N/A   Clear
10:56 PM 57.0 °F 48.9 °F 74% 29.90 in 10.0 mi NW 10.4 mph 16.1 mph N/A   Clear
11:56 PM 55.9 °F 46.9 °F 72% 29.91 in 10.0 mi NW 8.1 mph - N/A   Clear